Weather Roundup
Issued by NWS Springfield, MO

Home | Current Version | Previous Version | Text Only | Print | Product List | Glossary On
Versions: 1 2 3 4 5 6 7 8 9 10 11 12 13 14 15 16 17 18 19 20 21 22 23 24 25 26 27 28 29 30 31 32 33 34 35 36 37 38 39 40 41 42 43 44 45 46 47 48 49 50
000
NZUS99 KSGF 302007
HRRSGF

HOURLY WEATHER
NATIONAL WEATHER SERVICE SPRINGFIELD MO
300 PM CDT MON MAR 30 2015

......SGF CWA......

CITY           SKY/WX    TMP DP  RH WIND       PRES   REMARKS
SPRINGFIELD    FAIR      68  30  24 S12       30.13F
JOPLIN         FAIR      71  31  22 S7G16     30.12F
WEST PLAINS    FAIR      67  30  25 S8        30.15F
ROLLA          FAIR      69  28  21 W8        30.10F
OSAGE BEACH    FAIR      70  27  19 SW16      30.11F
BRANSON        SUNNY     68  32  26 S10       30.15F

......SURROUNDING SGF CWA......

CITY           SKY/WX    TMP DP  RH WIND       PRES   REMARKS
CHANUTE        FAIR      71  33  24 S13       30.11F
PARSONS        FAIR      72  34  24 S9        30.12F
COFFEYVILLE    FAIR      72  35  25 S12G20    30.10F
EMPORIA        FAIR      73  28  18 S16       30.06F
GROVE OK       FAIR      73  36  25 NW9       30.13F
ROGERS AR      FAIR      71  40  32 S8        30.14F
SILOAM SPRINGS FAIR      72  36  26 S13       30.15F
HARRISON AR    FAIR      70  37  29 SE8       30.13F
NEAR YELLVILLE FAIR      72  34  25 E5        30.14F

......KANSAS AND MISSOURI......

CITY           SKY/WX    TMP DP  RH WIND       PRES   REMARKS
KANSAS CTY INT FAIR      71  30  21 SW13      30.05F
DOWNTOWN KC    FAIR      73  28  18 SW13      30.04F
COLUMBIA       FAIR      69  28  21 S9G20     30.08F
SEDALIA        FAIR      70  26  19 SW13      30.10F
ST JOSEPH      FAIR      73  29  19 SW14      30.02F
ST LOUIS       FAIR      70  28  21 SW9       30.10F
SPIRIT OF STL  FAIR      68  26  20 W8        30.09F
KIRKSVILLE     FAIR      69  31  24 SW17G24   30.05F
WICHITA        FAIR      74  38  27 S16G29    30.05F
TOPEKA         FAIR      73  27  18 S13G23    30.04F
OLATHE         FAIR      70  31  23 S16       30.06F

......TENNESSEE......

CITY           SKY/WX    TMP DP  RH WIND       PRES   REMARKS
MEMPHIS        FAIR      72  35  25 NE3       30.17F
NASHVILLE      FAIR      69  25  19 NW10      30.14F

......ARKANSAS.......

CITY           SKY/WX    TMP DP  RH WIND       PRES   REMARKS
FAYETTEVILLE   FAIR      72  44  36 S13       30.14F
FT SMITH       FAIR      74  42  31 E6        30.13F
LITTLE ROCK    FAIR      72  45  37 E8        30.17F

......OKLAHOMA.......

CITY           SKY/WX    TMP DP  RH WIND       PRES   REMARKS
TULSA          FAIR      74  37  26 VRB5      30.10F
PONCA CITY     FAIR      75  37  25 SW10G20   30.09F
MCALESTER      FAIR      78  42  27 S9        30.12F
OKLAHOMA CITY  FAIR      76  38  25 S10       30.11F

......IOWA............

CITY           SKY/WX    TMP DP  RH WIND       PRES   REMARKS
DES MOINES     PTSUNNY   73  23  15 SW26G35   29.92F
QUAD CITIES    FAIR      70  27  20 W16G23    29.95F

......ILLINOIS........

CITY           SKY/WX    TMP DP  RH WIND       PRES   REMARKS
QUINCY         FAIR      68  28  22 SW16G23   30.04F
CHICAGO        CLOUDY    60  31  33 W14G21    29.97F



USA.gov is the U.S. government's official web portal to all federal, state and local government web resources and services.